Data No, UTC Date,UTC Time,Latitude,Longitude,Course(deg),Temp(degC),Sal(psu),pH
729,12/11/2019,12:08,35-35.75N,139-47.24E,205,16.285,,7.74
730,12/11/2019,12:09,35-35.59N,139-47.19E,183,16.648,,7.75
731,12/11/2019,12:10,35-35.40N,139-47.23E,166,16.84,,7.74
732,12/11/2019,12:11,35-35.22N,139-47.34E,145,16.629,,7.74
733,12/11/2019,12:12,35-35.06N,139-47.53E,131,16.917,,7.74
734,12/11/2019,12:13,35-34.91N,139-47.74E,131,16.974,,7.75
735,12/11/2019,12:14,35-34.74N,139-47.97E,132,16.703,,7.75
736,12/11/2019,12:15,35-34.58N,139-48.18E,132,16.669,,7.77
737,12/11/2019,12:16,35-34.42N,139-48.41E,131,16.555,,7.77
738,12/11/2019,12:17,35-34.25N,139-48.63E,132,16.508,,7.78
739,12/11/2019,12:18,35-34.09N,139-48.85E,130,16.415,,7.77
740,12/11/2019,12:19,35-33.94N,139-49.08E,130,16.236,,7.78
741,12/11/2019,12:20,35-33.78N,139-49.31E,129,15.959,,7.78
742,12/11/2019,12:21,35-33.62N,139-49.55E,129,15.775,,7.8
743,12/11/2019,12:22,35-33.46N,139-49.78E,130,15.512,,7.8
744,12/11/2019,12:23,35-33.31N,139-50.00E,130,15.226,,7.81
745,12/11/2019,12:24,35-33.14N,139-50.24E,130,15.148,,7.82
746,12/11/2019,12:25,35-32.97N,139-50.49E,131,15.017,,7.83
747,12/11/2019,12:26,35-32.73N,139-50.68E,154,14.946,,7.84
748,12/11/2019,12:27,35-32.46N,139-50.79E,164,15.167,,7.85
749,12/11/2019,12:28,35-32.17N,139-50.85E,171,15.127,,7.86
750,12/11/2019,12:29,35-31.88N,139-50.90E,171,14.947,,7.87
751,12/11/2019,12:30,35-31.58N,139-50.96E,171,14.867,,7.88
752,12/11/2019,12:31,35-31.28N,139-51.02E,170,14.759,,7.89
753,12/11/2019,12:32,35-30.96N,139-51.08E,172,14.799,,7.9
754,12/11/2019,12:33,35-30.65N,139-51.05E,190,14.774,,7.91
755,12/11/2019,12:34,35-30.35N,139-50.94E,197,14.872,,7.92
756,12/11/2019,12:35,35-30.05N,139-50.82E,197,14.96,,7.93
757,12/11/2019,12:36,35-29.76N,139-50.71E,197,14.983,,7.93
758,12/11/2019,12:37,35-29.45N,139-50.55E,211,14.822,,7.94
759,12/11/2019,12:38,35-29.23N,139-50.30E,226,14.74,,7.94
760,12/11/2019,12:39,35-29.02N,139-50.02E,228,14.998,,7.95
761,12/11/2019,12:40,35-28.81N,139-49.73E,228,15.086,,7.95
762,12/11/2019,12:41,35-28.60N,139-49.44E,227,15.018,,7.95
763,12/11/2019,12:42,35-28.38N,139-49.16E,228,15.041,,7.95
764,12/11/2019,12:43,35-28.16N,139-48.85E,228,15.181,,7.95
765,12/11/2019,12:44,35-27.96N,139-48.57E,229,15.336,,7.95
766,12/11/2019,12:45,35-27.76N,139-48.27E,230,15.455,,7.95
767,12/11/2019,12:46,35-27.55N,139-47.98E,229,15.394,,7.95
768,12/11/2019,12:47,35-27.34N,139-47.68E,229,15.444,,7.95
769,12/11/2019,12:48,35-27.13N,139-47.37E,229,15.484,,7.95
770,12/11/2019,12:49,35-26.92N,139-47.07E,229,15.368,,7.95
771,12/11/2019,12:50,35-26.71N,139-46.78E,229,15.384,,7.95
772,12/11/2019,12:51,35-26.50N,139-46.48E,229,15.538,,7.95
773,12/11/2019,12:52,35-26.29N,139-46.18E,229,15.351,,7.96
774,12/11/2019,12:53,35-26.09N,139-45.89E,229,15.231,,7.96
775,12/11/2019,12:54,35-25.88N,139-45.57E,231,15.114,,7.96
776,12/11/2019,12:55,35-25.68N,139-45.27E,231,---,,7.96
777,12/11/2019,12:56,35-25.49N,139-44.96E,234,14.974,,7.96
778,12/11/2019,12:57,35-25.30N,139-44.63E,235,15.036,,7.98
779,12/11/2019,12:58,35-25.13N,139-44.30E,236,15.099,,7.98
780,12/11/2019,12:59,35-24.95N,139-43.98E,236,15.135,,7.99
781,12/11/2019,13:00,35-24.76N,139-43.66E,234,15.156,,7.99
782,12/11/2019,13:01,35-24.58N,139-43.34E,233,15.162,,8
783,12/11/2019,13:02,35-24.33N,139-43.11E,208,15.111,,8
784,12/11/2019,13:03,35-24.05N,139-42.95E,205,15.081,,8
785,12/11/2019,13:04,35-23.77N,139-42.79E,205,15.092,,8
786,12/11/2019,13:05,35-23.48N,139-42.63E,205,15.119,,8
787,12/11/2019,13:06,35-23.19N,139-42.46E,205,15.119,,8.01
788,12/11/2019,13:07,35-22.88N,139-42.21E,217,15.081,,8.01
789,12/11/2019,13:08,35-22.64N,139-41.97E,218,15.072,,8.01
790,12/11/2019,13:09,35-22.36N,139-41.80E,199,14.973,,8.01
791,12/11/2019,13:10,35-22.09N,139-41.80E,181,15.041,,8.01
792,12/11/2019,13:11,35-21.80N,139-41.82E,171,15.14,,8.01
793,12/11/2019,13:12,35-21.49N,139-41.89E,169,15.204,,8.01
794,12/11/2019,13:13,35-21.19N,139-41.96E,169,15.384,,8.01
795,12/11/2019,13:14,35-20.89N,139-42.02E,170,15.581,,8.01
796,12/11/2019,13:15,35-20.62N,139-42.08E,170,15.668,,8.01
797,12/11/2019,13:16,35-20.36N,139-42.13E,170,15.784,,8
798,12/11/2019,13:17,35-20.13N,139-42.24E,149,15.693,,7.99
799,12/11/2019,13:18,35-19.95N,139-42.39E,145,15.799,,7.99
800,12/11/2019,13:19,35-19.76N,139-42.55E,145,15.793,,7.99
801,12/11/2019,13:20,35-19.56N,139-42.72E,144,15.958,,7.98
802,12/11/2019,13:21,35-19.39N,139-42.88E,143,16.085,,7.98
803,12/11/2019,13:22,35-19.22N,139-43.04E,142,16.148,,7.98
804,12/11/2019,13:23,35-19.04N,139-43.22E,142,16.167,,7.98
805,12/11/2019,13:24,35-18.86N,139-43.38E,141,16.133,,7.97
806,12/11/2019,13:25,35-18.69N,139-43.55E,141,16.386,,7.97
807,12/11/2019,13:26,35-18.52N,139-43.73E,140,16.452,,7.97
808,12/11/2019,13:27,35-18.34N,139-43.90E,140,16.343,,7.96
809,12/11/2019,13:28,35-18.16N,139-44.08E,141,16.341,,7.96
810,12/11/2019,13:29,35-17.98N,139-44.25E,142,16.493,,7.96
811,12/11/2019,13:30,35-17.79N,139-44.43E,142,16.523,,7.96
812,12/11/2019,13:31,35-17.62N,139-44.59E,143,16.458,,7.96
813,12/11/2019,13:32,35-17.44N,139-44.75E,143,16.342,,7.96
814,12/11/2019,13:33,35-17.25N,139-44.92E,143,16.297,,7.96
815,12/11/2019,13:34,35-17.07N,139-45.08E,146,16.409,,7.97
816,12/11/2019,13:35,35-16.88N,139-45.23E,147,16.247,,7.98
817,12/11/2019,13:36,35-16.68N,139-45.38E,147,16.23,,7.98
818,12/11/2019,13:37,35-16.48N,139-45.54E,147,16.15,,7.98
819,12/11/2019,13:38,35-16.27N,139-45.70E,146,16.027,,7.99
820,12/11/2019,13:39,35-16.07N,139-45.85E,147,15.953,,7.99
821,12/11/2019,13:40,35-15.87N,139-46.00E,148,15.957,,8
822,12/11/2019,13:41,35-15.66N,139-46.17E,147,15.861,,8
823,12/11/2019,13:42,35-15.44N,139-46.31E,155,15.473,,8
824,12/11/2019,13:43,35-15.28N,139-46.35E,169,15.178,,8
825,12/11/2019,13:44,35-15.05N,139-46.38E,174,15.466,,8
826,12/11/2019,13:45,35-14.81N,139-46.41E,174,15.622,,8.01
827,12/11/2019,13:46,35-14.59N,139-46.43E,175,15.806,,8.01
828,12/11/2019,13:47,35-14.37N,139-46.45E,176,15.807,,8.01
829,12/11/2019,13:48,35-14.12N,139-46.46E,177,15.731,,8
830,12/11/2019,13:49,35-13.91N,139-46.48E,177,15.679,,8
831,12/11/2019,13:50,35-13.67N,139-46.49E,177,15.794,,8
832,12/11/2019,13:51,35-13.44N,139-46.49E,179,15.944,,8.01
833,12/11/2019,13:52,35-13.21N,139-46.50E,180,16.212,,8.01
834,12/11/2019,13:53,35-12.98N,139-46.49E,180,16.421,,8
835,12/11/2019,13:54,35-12.73N,139-46.45E,192,16.285,,8
836,12/11/2019,13:55,35-12.51N,139-46.37E,195,16.436,,8
837,12/11/2019,13:56,35-12.24N,139-46.28E,195,16.365,,8
838,12/11/2019,13:57,35-11.95N,139-46.18E,196,16.264,,8.01
839,12/11/2019,13:58,35-11.67N,139-46.07E,198,16.177,,8.01
840,12/11/2019,13:59,35-11.38N,139-45.94E,199,16.168,,8.01
841,12/11/2019,14:00,35-11.08N,139-45.80E,200,16.122,,8.01
842,12/11/2019,14:01,35-10.77N,139-45.66E,200,16.116,,8.01
843,12/11/2019,14:02,35-10.44N,139-45.52E,200,16.041,,8.01
844,12/11/2019,14:03,35-10.15N,139-45.39E,200,15.923,,8.01
845,12/11/2019,14:04,35-09.83N,139-45.24E,200,15.985,,8.01
846,12/11/2019,14:05,35-09.52N,139-45.10E,199,16.077,,8.02
847,12/11/2019,14:06,35-09.19N,139-44.97E,196,16.14,,8.02
848,12/11/2019,14:07,35-08.86N,139-44.86E,195,16.095,,8.01
849,12/11/2019,14:08,35-08.54N,139-44.75E,195,16.14,,8.02
850,12/11/2019,14:09,35-08.21N,139-44.64E,195,16.333,,8.01
851,12/11/2019,14:10,35-07.86N,139-44.53E,195,16.554,,8.02
852,12/11/2019,14:11,35-07.57N,139-44.43E,195,16.76,,8.01
853,12/11/2019,14:12,35-07.24N,139-44.31E,195,16.948,,8.02
854,12/11/2019,14:13,35-06.94N,139-44.21E,195,17.2,,8.02
855,12/11/2019,14:14,35-06.62N,139-44.10E,195,17.217,,8.02
856,12/11/2019,14:15,35-06.30N,139-43.99E,195,17.233,,8.02
857,12/11/2019,14:16,35-05.97N,139-43.88E,195,17.479,,8.03
858,12/11/2019,14:17,35-05.64N,139-43.77E,195,17.969,,8.04
859,12/11/2019,14:18,35-05.32N,139-43.67E,192,18.594,,8.04
860,12/11/2019,14:19,35-05.00N,139-43.58E,194,19.33,,8.04
861,12/11/2019,14:20,35-04.69N,139-43.48E,194,19.932,,8.04
862,12/11/2019,14:21,35-04.38N,139-43.39E,192,20.184,,8.05
863,12/11/2019,14:22,35-04.07N,139-43.32E,190,20.234,,8.07
864,12/11/2019,14:23,35-03.73N,139-43.25E,189,20.356,,8.08
865,12/11/2019,14:24,35-03.43N,139-43.19E,189,20.431,,8.09
866,12/11/2019,14:25,35-03.12N,139-43.12E,189,20.583,,8.1
867,12/11/2019,14:26,35-02.80N,139-43.07E,187,20.525,,8.1
868,12/11/2019,14:27,35-02.47N,139-43.02E,186,20.45,,8.1
869,12/11/2019,14:28,35-02.17N,139-42.97E,188,20.479,,8.1
870,12/11/2019,14:29,35-01.86N,139-42.92E,189,20.508,,8.11
871,12/11/2019,14:30,35-01.55N,139-42.86E,188,20.466,,8.11
872,12/11/2019,14:31,35-01.23N,139-42.80E,188,20.377,,8.11
873,12/11/2019,14:32,35-00.93N,139-42.75E,187,20.345,,8.11
874,12/11/2019,14:33,35-00.61N,139-42.70E,186,20.369,,8.1
875,12/11/2019,14:34,35-00.30N,139-42.67E,183,20.444,,8.1
876,12/11/2019,14:35,34-59.98N,139-42.66E,181,20.571,,8.11
877,12/11/2019,14:36,34-59.66N,139-42.66E,179,20.636,,8.11
878,12/11/2019,14:37,34-59.33N,139-42.67E,177,20.639,,8.1
879,12/11/2019,14:38,34-58.99N,139-42.70E,176,20.671,,8.1
880,12/11/2019,14:39,34-58.69N,139-42.76E,169,20.689,,8.1
881,12/11/2019,14:40,34-58.36N,139-42.85E,165,20.764,,8.11
882,12/11/2019,14:41,34-58.05N,139-42.96E,164,20.969,,8.1
883,12/11/2019,14:42,34-57.72N,139-43.07E,164,21.027,,8.1
884,12/11/2019,14:43,34-57.39N,139-43.19E,161,21.038,,8.1
885,12/11/2019,14:44,34-57.08N,139-43.34E,158,21.061,,8.1
886,12/11/2019,14:45,34-56.78N,139-43.48E,157,21.021,,8.1
887,12/11/2019,14:46,34-56.48N,139-43.66E,153,21.014,,8.1
888,12/11/2019,14:47,34-56.16N,139-43.87E,151,21.01,,8.1
889,12/11/2019,14:48,34-55.87N,139-44.06E,151,21.004,,8.1
890,12/11/2019,14:49,34-55.56N,139-44.28E,150,21.01,,8.1
891,12/11/2019,14:50,34-55.27N,139-44.47E,150,21.015,,8.1
892,12/11/2019,14:51,34-54.96N,139-44.69E,150,21.035,,8.1
893,12/11/2019,14:52,34-54.63N,139-44.92E,150,21.054,,8.1
894,12/11/2019,14:53,34-54.34N,139-45.11E,151,21.078,,8.09
895,12/11/2019,14:54,34-54.03N,139-45.32E,151,21.081,,8.09
896,12/11/2019,14:55,34-53.69N,139-45.54E,152,21.115,,8.09
897,12/11/2019,14:56,34-53.41N,139-45.72E,152,21.147,,8.09
898,12/11/2019,14:57,34-53.07N,139-45.94E,152,21.165,,8.09
899,12/11/2019,14:58,34-52.77N,139-46.14E,149,21.187,,8.08
900,12/11/2019,14:59,34-52.55N,139-46.45E,120,21.19,,8.08
901,12/11/2019,15:00,34-52.44N,139-46.82E,107,21.196,,8.08
902,12/11/2019,15:01,34-52.35N,139-47.21E,106,21.236,,8.08
903,12/11/2019,15:02,34-52.26N,139-47.60E,104,21.035,,8.08
904,12/11/2019,15:03,34-52.18N,139-48.00E,102,20.879,,8.08
905,12/11/2019,15:04,34-52.12N,139-48.39E,101,20.678,,8.09
906,12/11/2019,15:05,34-52.06N,139-48.81E,99,20.549,,8.09
907,12/11/2019,15:06,34-52.01N,139-49.19E,99,20.468,,8.09
908,12/11/2019,15:07,34-51.95N,139-49.59E,101,20.467,,8.09
909,12/11/2019,15:08,34-51.91N,139-49.98E,95,20.451,,8.09
910,12/11/2019,15:09,34-51.89N,139-50.40E,92,20.549,,8.08
911,12/11/2019,15:10,34-51.88N,139-50.77E,90,20.18,,8.08
912,12/11/2019,15:11,34-51.88N,139-51.19E,89,19.704,,8.08
913,12/11/2019,15:12,34-51.88N,139-51.57E,90,19.664,,8.09
914,12/11/2019,15:13,34-51.88N,139-51.96E,90,19.654,,8.09
915,12/11/2019,15:14,34-51.88N,139-52.35E,90,19.66,,8.09
916,12/11/2019,15:15,34-51.88N,139-52.76E,90,19.697,,8.09
917,12/11/2019,15:16,34-51.88N,139-53.14E,90,19.743,,8.08
918,12/11/2019,15:17,34-51.88N,139-53.55E,89,19.753,,8.09
919,12/11/2019,15:18,34-51.89N,139-53.92E,90,19.722,,8.08
920,12/11/2019,15:19,34-51.88N,139-54.32E,90,19.696,,8.08
921,12/11/2019,15:20,34-51.88N,139-54.70E,90,19.682,,8.09
922,12/11/2019,15:21,34-51.96N,139-55.06E,65,19.678,,8.08
923,12/11/2019,15:22,34-52.10N,139-55.38E,59,19.691,,8.08
924,12/11/2019,15:23,34-52.27N,139-55.70E,57,19.691,,8.09
925,12/11/2019,15:24,34-52.44N,139-56.04E,57,19.718,,8.09
926,12/11/2019,15:25,34-52.60N,139-56.35E,58,19.748,,8.09
927,12/11/2019,15:26,34-52.76N,139-56.69E,59,19.776,,8.09
928,12/11/2019,15:27,34-52.92N,139-57.03E,60,19.79,,8.09
929,12/11/2019,15:28,34-53.08N,139-57.37E,60,19.784,,8.09
930,12/11/2019,15:29,34-53.24N,139-57.70E,59,19.811,,8.09
931,12/11/2019,15:30,34-53.40N,139-58.04E,59,19.851,,8.09
932,12/11/2019,15:31,34-53.57N,139-58.37E,59,19.878,,8.09
933,12/11/2019,15:32,34-53.73N,139-58.71E,59,19.931,,8.09
934,12/11/2019,15:33,34-53.89N,139-59.05E,59,19.962,,8.09
935,12/11/2019,15:34,34-54.05N,139-59.39E,59,20,,8.09
936,12/11/2019,15:35,34-54.22N,139-59.73E,59,20.031,,8.09
937,12/11/2019,15:36,34-54.38N,140-00.07E,59,20.049,,8.09
938,12/11/2019,15:37,34-54.55N,140-00.42E,59,20.068,,8.09
939,12/11/2019,15:38,34-54.71N,140-00.76E,59,20.115,,8.1
940,12/11/2019,15:39,34-54.87N,140-01.09E,59,20.147,,8.1
941,12/11/2019,15:40,34-55.04N,140-01.43E,60,20.046,,8.09
942,12/11/2019,15:41,34-55.20N,140-01.78E,60,20.015,,8.1
943,12/11/2019,15:42,34-55.36N,140-02.12E,60,20.001,,8.1
944,12/11/2019,15:43,34-55.52N,140-02.46E,59,19.976,,8.1
945,12/11/2019,15:44,34-55.68N,140-02.80E,60,19.969,,8.1
946,12/11/2019,15:45,34-55.84N,140-03.14E,60,19.944,,8.1
947,12/11/2019,15:46,34-56.00N,140-03.49E,61,19.93,,8.1
948,12/11/2019,15:47,34-56.16N,140-03.82E,60,19.93,,8.1
949,12/11/2019,15:48,34-56.32N,140-04.17E,60,19.868,,8.1
950,12/11/2019,15:49,34-56.48N,140-04.52E,60,19.904,,8.1
951,12/11/2019,15:50,34-56.63N,140-04.84E,60,20.167,,8.1
952,12/11/2019,15:51,34-56.79N,140-05.19E,60,20.375,,8.1
953,12/11/2019,15:52,34-56.95N,140-05.53E,61,20.517,,8.1
954,12/11/2019,15:53,34-57.10N,140-05.87E,61,20.612,,8.1
955,12/11/2019,15:54,34-57.26N,140-06.21E,61,20.633,,8.1
956,12/11/2019,15:55,34-57.41N,140-06.55E,61,20.706,,8.1
957,12/11/2019,15:56,34-57.57N,140-06.89E,60,20.746,,8.1
958,12/11/2019,15:57,34-57.73N,140-07.23E,59,20.705,,8.1
959,12/11/2019,15:58,34-57.88N,140-07.54E,60,20.585,,8.1
960,12/11/2019,15:59,34-58.04N,140-07.88E,60,20.289,,8.1
961,12/11/2019,16:00,34-58.20N,140-08.20E,59,20.132,,8.1
962,12/11/2019,16:01,34-58.35N,140-08.54E,59,20.105,,8.1
963,12/11/2019,16:02,34-58.51N,140-08.87E,59,20.06,,8.1
964,12/11/2019,16:03,34-58.67N,140-09.19E,58,20.027,,8.1
965,12/11/2019,16:04,34-58.83N,140-09.51E,56,20.051,,8.1
966,12/11/2019,16:05,34-59.01N,140-09.83E,55,20.027,,8.09
967,12/11/2019,16:06,34-59.19N,140-10.14E,55,20.044,,8.09
968,12/11/2019,16:07,34-59.36N,140-10.45E,55,20.095,,8.09
969,12/11/2019,16:08,34-59.54N,140-10.75E,54,20.109,,8.08
970,12/11/2019,16:09,34-59.71N,140-11.05E,55,20.134,,8.08
971,12/11/2019,16:10,34-59.89N,140-11.36E,55,20.147,,8.09
972,12/11/2019,16:11,35-00.07N,140-11.67E,54,20.173,,8.08
973,12/11/2019,16:12,35-00.24N,140-11.98E,55,20.193,,8.08
974,12/11/2019,16:13,35-00.42N,140-12.29E,55,20.2,,8.08
975,12/11/2019,16:14,35-00.60N,140-12.60E,55,20.201,,8.09
976,12/11/2019,16:15,35-00.77N,140-12.91E,55,20.211,,8.09
977,12/11/2019,16:16,35-00.95N,140-13.21E,55,20.227,,8.08
978,12/11/2019,16:17,35-01.12N,140-13.52E,56,20.24,,8.09
979,12/11/2019,16:18,35-01.29N,140-13.85E,57,20.271,,8.08
980,12/11/2019,16:19,35-01.45N,140-14.17E,58,20.29,,8.09
981,12/11/2019,16:20,35-01.62N,140-14.49E,58,20.273,,8.08
982,12/11/2019,16:21,35-01.78N,140-14.80E,58,20.271,,8.09
983,12/11/2019,16:22,35-01.95N,140-15.13E,57,20.32,,8.09
984,12/11/2019,16:23,35-02.12N,140-15.46E,58,20.357,,8.09
985,12/11/2019,16:24,35-02.28N,140-15.78E,58,20.359,,8.09
986,12/11/2019,16:25,35-02.44N,140-16.10E,57,20.396,,8.09
987,12/11/2019,16:26,35-02.61N,140-16.42E,57,20.453,,8.09
988,12/11/2019,16:27,35-02.79N,140-16.76E,57,20.5,,8.09
989,12/11/2019,16:28,35-02.95N,140-17.07E,57,20.472,,8.09
990,12/11/2019,16:29,35-03.11N,140-17.39E,57,20.447,,8.09
991,12/11/2019,16:30,35-03.28N,140-17.72E,58,20.444,,8.09
992,12/11/2019,16:31,35-03.44N,140-18.04E,58,20.455,,8.09
993,12/11/2019,16:32,35-03.61N,140-18.37E,58,20.463,,8.1
994,12/11/2019,16:33,35-03.77N,140-18.69E,58,20.491,,8.09
995,12/11/2019,16:34,35-03.95N,140-19.04E,58,20.453,,8.1
996,12/11/2019,16:35,35-04.10N,140-19.34E,58,20.371,,8.1
997,12/11/2019,16:36,35-04.26N,140-19.67E,59,20.324,,8.09
998,12/11/2019,16:37,35-04.43N,140-19.98E,56,20.273,,8.1
999,12/11/2019,16:38,35-04.60N,140-20.29E,54,20.259,,8.1
1000,12/11/2019,16:39,35-04.79N,140-20.59E,53,20.432,,8.1
1001,12/11/2019,16:40,35-04.97N,140-20.90E,53,20.569,,8.1
1002,12/11/2019,16:41,35-05.16N,140-21.22E,54,20.642,,8.1
1003,12/11/2019,16:42,35-05.34N,140-21.51E,53,20.672,,8.1
1004,12/11/2019,16:43,35-05.51N,140-21.80E,53,20.697,,8.1
1005,12/11/2019,16:44,35-05.69N,140-22.10E,53,20.705,,8.1
1006,12/11/2019,16:45,35-05.87N,140-22.40E,54,20.68,,8.1
1007,12/11/2019,16:46,35-06.05N,140-22.70E,54,20.716,,8.09
1008,12/11/2019,16:47,35-06.23N,140-23.01E,54,20.841,,8.09
1009,12/11/2019,16:48,35-06.41N,140-23.32E,54,20.97,,8.09
1010,12/11/2019,16:49,35-06.58N,140-23.60E,54,21.014,,8.09
1011,12/11/2019,16:50,35-06.76N,140-23.90E,54,21.008,,8.1
1012,12/11/2019,16:51,35-06.94N,140-24.20E,54,21.005,,8.09
1013,12/11/2019,16:52,35-07.12N,140-24.50E,53,20.998,,8.09
1014,12/11/2019,16:53,35-07.29N,140-24.80E,54,20.979,,8.1
1015,12/11/2019,16:54,35-07.48N,140-25.11E,54,20.902,,8.09
1016,12/11/2019,16:55,35-07.65N,140-25.41E,54,20.672,,8.1
1017,12/11/2019,16:56,35-07.84N,140-25.73E,54,20.379,,8.1
1018,12/11/2019,16:57,35-08.02N,140-26.05E,54,19.955,,8.1
1019,12/11/2019,16:58,35-08.19N,140-26.33E,55,19.754,,8.1
1020,12/11/2019,16:59,35-08.36N,140-26.64E,55,17.637,,8.1
1021,12/11/2019,17:00,35-08.53N,140-26.94E,55,17.454,,8.1
1022,12/11/2019,17:01,35-08.71N,140-27.25E,55,17.625,,8.11
1023,12/11/2019,17:02,35-08.88N,140-27.56E,55,18.523,,8.1
1024,12/11/2019,17:03,35-09.07N,140-27.87E,54,18.551,,8.1
1025,12/11/2019,17:04,35-09.25N,140-28.19E,54,18.545,,8.08
1026,12/11/2019,17:05,35-09.43N,140-28.49E,54,19.112,,8.08
1027,12/11/2019,17:06,35-09.61N,140-28.81E,55,19.749,,8.08
1028,12/11/2019,17:07,35-09.79N,140-29.11E,54,20.281,,8.08
1029,12/11/2019,17:08,35-09.97N,140-29.42E,54,20.456,,8.08
1030,12/11/2019,17:09,35-10.15N,140-29.73E,54,20.44,,8.08
1031,12/11/2019,17:10,35-10.34N,140-30.05E,54,20.47,,8.08
1032,12/11/2019,17:11,35-10.52N,140-30.35E,51,20.543,,8.09
1033,12/11/2019,17:12,35-10.73N,140-30.63E,47,20.381,,8.1
1034,12/11/2019,17:13,35-10.95N,140-30.91E,44,20.204,,8.1
1035,12/11/2019,17:14,35-11.19N,140-31.17E,41,20.454,,8.1
1036,12/11/2019,17:15,35-11.43N,140-31.41E,39,20.122,,8.1
1037,12/11/2019,17:16,35-11.67N,140-31.65E,39,20.417,,8.1
1038,12/11/2019,17:17,35-11.91N,140-31.89E,39,20.434,,8.1
1039,12/11/2019,17:18,35-12.16N,140-32.14E,39,20.447,,8.1
1040,12/11/2019,17:19,35-12.42N,140-32.38E,39,19.948,,8.1
1041,12/11/2019,17:20,35-12.67N,140-32.63E,40,20.173,,8.1
1042,12/11/2019,17:21,35-12.90N,140-32.87E,39,20.39,,8.1
1043,12/11/2019,17:22,35-13.14N,140-33.12E,40,20.342,,8.1
1044,12/11/2019,17:23,35-13.38N,140-33.36E,39,---,,8.1
1045,12/11/2019,17:24,35-13.62N,140-33.61E,40,20.496,,8.1
1046,12/11/2019,17:25,35-13.86N,140-33.87E,40,20.482,,8.1
1047,12/11/2019,17:26,35-14.10N,140-34.11E,39,20.173,,8.1
1048,12/11/2019,17:27,35-14.34N,140-34.36E,40,20.055,,8.1
1049,12/11/2019,17:28,35-14.58N,140-34.61E,40,20.085,,8.1
1050,12/11/2019,17:29,35-14.83N,140-34.85E,40,20.161,,8.1
1051,12/11/2019,17:30,35-15.08N,140-35.11E,39,20.345,,8.1
1052,12/11/2019,17:31,35-15.34N,140-35.37E,39,20.361,,8.1
1053,12/11/2019,17:32,35-15.57N,140-35.61E,40,20.268,,8.1
1054,12/11/2019,17:33,35-15.81N,140-35.85E,40,20.258,,8.1
1055,12/11/2019,17:34,35-16.06N,140-36.11E,40,20.122,,8.1
1056,12/11/2019,17:35,35-16.31N,140-36.37E,40,20.032,,8.1
1057,12/11/2019,17:36,35-16.55N,140-36.62E,39,19.894,,8.1
1058,12/11/2019,17:37,35-16.81N,140-36.85E,35,19.348,,8.1
1059,12/11/2019,17:38,35-17.07N,140-37.07E,34,18.969,,8.1
1060,12/11/2019,17:39,35-17.34N,140-37.29E,34,18.993,,8.1
1061,12/11/2019,17:40,35-17.59N,140-37.51E,34,---,,8.1
1062,12/11/2019,17:41,35-17.85N,140-37.72E,34,19.048,,8.1
1063,12/11/2019,17:42,35-18.10N,140-37.94E,34,19.062,,8.09
1064,12/11/2019,17:43,35-18.36N,140-38.15E,34,19.065,,8.09
1065,12/11/2019,17:44,35-18.62N,140-38.38E,34,18.964,,8.1
1066,12/11/2019,17:45,35-18.88N,140-38.59E,34,18.916,,8.09
1067,12/11/2019,17:46,35-19.14N,140-38.80E,34,18.971,,8.1
1068,12/11/2019,17:47,35-19.41N,140-39.03E,35,18.97,,8.1
1069,12/11/2019,17:48,35-19.67N,140-39.25E,35,18.926,,8.1
1070,12/11/2019,17:49,35-19.92N,140-39.48E,35,18.992,,8.1
1071,12/11/2019,17:50,35-20.21N,140-39.73E,35,19.084,,8.1
1072,12/11/2019,17:51,35-20.47N,140-39.95E,34,19.041,,8.1
1073,12/11/2019,17:52,35-20.74N,140-40.19E,34,18.947,,8.1
1074,12/11/2019,17:53,35-21.00N,140-40.41E,35,18.932,,8.1
1075,12/11/2019,17:54,35-21.25N,140-40.62E,34,18.601,,8.1
1076,12/11/2019,17:55,35-21.52N,140-40.84E,34,18.467,,8.1
1077,12/11/2019,17:56,35-21.78N,140-41.06E,34,18.576,,8.1
1078,12/11/2019,17:57,35-22.05N,140-41.28E,34,18.547,,8.1
1079,12/11/2019,17:58,35-22.32N,140-41.51E,34,18.564,,8.1
1080,12/11/2019,17:59,35-22.54N,140-41.69E,34,18.572,,8.1
1081,12/11/2019,18:00,35-22.80N,140-41.92E,34,18.528,,8.1
1082,12/11/2019,18:01,35-23.07N,140-42.14E,34,18.374,,8.1
1083,12/11/2019,18:02,35-23.34N,140-42.36E,34,17.933,,8.09
1084,12/11/2019,18:03,35-23.62N,140-42.60E,34,18.019,,8.1
1085,12/11/2019,18:04,35-23.89N,140-42.83E,35,18.358,,8.1
1086,12/11/2019,18:05,35-24.14N,140-43.04E,34,18.687,,8.1
1087,12/11/2019,18:06,35-24.40N,140-43.26E,34,18.977,,8.09
1088,12/11/2019,18:07,35-24.66N,140-43.48E,34,19.201,,8.09
1089,12/11/2019,18:08,35-24.93N,140-43.71E,34,19.412,,8.08
1090,12/11/2019,18:09,35-25.20N,140-43.93E,34,19.562,,8.08
1091,12/11/2019,18:10,35-25.46N,140-44.15E,34,19.692,,8.09
1092,12/11/2019,18:11,35-25.72N,140-44.37E,34,19.789,,8.09
1093,12/11/2019,18:12,35-25.99N,140-44.60E,34,19.874,,8.1
1094,12/11/2019,18:13,35-26.25N,140-44.82E,34,19.979,,8.1
1095,12/11/2019,18:14,35-26.51N,140-45.04E,34,20.087,,8.1
1096,12/11/2019,18:15,35-26.78N,140-45.26E,35,20.244,,8.1
1097,12/11/2019,18:16,35-27.03N,140-45.48E,34,20.543,,8.1
1098,12/11/2019,18:17,35-27.30N,140-45.70E,34,20.734,,8.1
1099,12/11/2019,18:18,35-27.56N,140-45.92E,34,20.771,,8.1
1100,12/11/2019,18:19,35-27.82N,140-46.14E,35,20.765,,8.1
1101,12/11/2019,18:20,35-28.09N,140-46.37E,34,20.758,,8.1
1102,12/11/2019,18:21,35-28.35N,140-46.59E,34,20.787,,8.11
1103,12/11/2019,18:22,35-28.62N,140-46.82E,34,20.813,,8.11
1104,12/11/2019,18:23,35-28.89N,140-47.05E,34,20.815,,8.11
1105,12/11/2019,18:24,35-29.15N,140-47.27E,34,20.783,,8.11
1106,12/11/2019,18:25,35-29.42N,140-47.50E,34,20.681,,8.11
1107,12/11/2019,18:26,35-29.69N,140-47.73E,34,20.554,,8.11
1108,12/11/2019,18:27,35-29.95N,140-47.95E,35,20.187,,8.11
1109,12/11/2019,18:28,35-30.22N,140-48.19E,35,19.01,,8.11
1110,12/11/2019,18:29,35-30.47N,140-48.40E,35,18.882,,8.12
1111,12/11/2019,18:30,35-30.72N,140-48.62E,35,18.832,,8.11
1112,12/11/2019,18:31,35-30.99N,140-48.85E,35,18.784,,8.11
1113,12/11/2019,18:32,35-31.24N,140-49.06E,35,18.725,,8.1
1114,12/11/2019,18:33,35-31.50N,140-49.30E,35,18.679,,8.1
1115,12/11/2019,18:34,35-31.75N,140-49.52E,36,18.67,,8.1
1116,12/11/2019,18:35,35-32.00N,140-49.74E,35,18.611,,8.1
1117,12/11/2019,18:36,35-32.25N,140-49.96E,36,18.521,,8.1
1118,12/11/2019,18:37,35-32.50N,140-50.18E,34,18.444,,8.1
1119,12/11/2019,18:38,35-32.76N,140-50.40E,35,18.695,,8.1
1120,12/11/2019,18:39,35-33.03N,140-50.63E,35,18.846,,8.1
1121,12/11/2019,18:40,35-33.26N,140-50.83E,35,18.966,,8.1
1122,12/11/2019,18:41,35-33.52N,140-51.05E,35,19.016,,8.09
1123,12/11/2019,18:42,35-33.79N,140-51.28E,35,19.026,,8.1
1124,12/11/2019,18:43,35-34.02N,140-51.48E,34,19.017,,8.1
1125,12/11/2019,18:44,35-34.27N,140-51.69E,34,19.022,,8.1
1126,12/11/2019,18:45,35-34.53N,140-51.91E,34,19.101,,8.1
1127,12/11/2019,18:46,35-34.78N,140-52.13E,35,19.22,,8.1
1128,12/11/2019,18:47,35-35.06N,140-52.38E,35,19.286,,8.1
1129,12/11/2019,18:48,35-35.31N,140-52.59E,35,19.32,,8.1
1130,12/11/2019,18:49,35-35.56N,140-52.80E,35,19.329,,8.1
1131,12/11/2019,18:50,35-35.77N,140-52.99E,35,19.369,,8.1
1132,12/11/2019,18:51,35-36.05N,140-53.22E,34,19.444,,8.1